timestamp,wind_dir_avg,wind_spd_avg,wind_spd_max_dir,wind_spd_gust,battery_voltage,lat,long
2024-01-11 00:04:00+00:00,147.0,10.76,146.0,11.52,12.25,47.59359,-54.27349
2024-01-11 00:14:00+00:00,145.0,10.23,146.0,12.09,12.25,47.59359,-54.27349
2024-01-11 00:24:00+00:00,148.0,10.29,149.0,11.93,12.25,47.59359,-54.27349
2024-01-11 00:34:00+00:00,147.0,9.53,146.0,11.05,12.25,47.59359,-54.27349
2024-01-11 00:44:00+00:00,145.0,9.95,144.0,12.43,12.25,47.59359,-54.27349
2024-01-11 00:54:00+00:00,140.0,9.67,141.0,10.75,12.25,47.59359,-54.27349
2024-01-11 01:04:00+00:00,140.0,10.33,131.0,13.75,12.25,47.59359,-54.27349
2024-01-11 01:14:00+00:00,145.0,9.79,148.0,10.81,12.25,47.59359,-54.27349
2024-01-11 01:24:00+00:00,130.0,9.84,128.0,12.05,12.25,47.59359,-54.27349
2024-01-11 01:34:00+00:00,145.0,11.34,150.0,13.69,12.25,47.59359,-54.27349
2024-01-11 01:44:00+00:00,150.0,9.93,157.0,12.06,12.25,47.59359,-54.27349
2024-01-11 01:54:00+00:00,141.0,7.14,142.0,8.19,12.25,47.59359,-54.27349
2024-01-11 02:04:00+00:00,118.0,5.3,110.0,6.53,12.25,47.59359,-54.27349
2024-01-11 02:14:00+00:00,129.0,5.19,120.0,6.9,12.25,47.59359,-54.27349
2024-01-11 02:24:00+00:00,137.0,6.46,125.0,9.06,12.25,47.59359,-54.27349
2024-01-11 02:34:00+00:00,133.0,8.62,129.0,10.79,12.25,47.59359,-54.27349
2024-01-11 02:44:00+00:00,136.0,10.24,138.0,12.39,12.25,47.59359,-54.27349
2024-01-11 02:54:00+00:00,130.0,11.09,127.0,14.67,12.25,47.59359,-54.27349
2024-01-11 03:04:00+00:00,137.0,13.53,127.0,16.22,12.25,47.59359,-54.27349
2024-01-11 03:14:00+00:00,158.0,13.25,158.0,15.77,12.17,47.59359,-54.27349
2024-01-11 03:24:00+00:00,130.0,9.13,113.0,13.16,12.17,47.59359,-54.27349
2024-01-11 03:34:00+00:00,144.0,6.46,153.0,7.64,12.17,47.59359,-54.27349
2024-01-11 03:44:00+00:00,162.0,10.87,162.0,13.98,12.17,47.59359,-54.27349
2024-01-11 03:54:00+00:00,164.0,12.21,152.0,13.84,12.17,47.59359,-54.27349
2024-01-11 04:04:00+00:00,159.0,10.52,159.0,11.73,12.17,47.59359,-54.27349
2024-01-11 04:14:00+00:00,159.0,11.89,159.0,13.44,12.17,47.59359,-54.27349
2024-01-11 04:24:00+00:00,158.0,14.22,153.0,16.19,12.17,47.59359,-54.27349
2024-01-11 04:34:00+00:00,163.0,13.7,168.0,16.87,12.17,47.59359,-54.27349
2024-01-11 04:44:00+00:00,146.0,14.87,143.0,17.24,12.17,47.59359,-54.27349
2024-01-11 04:54:00+00:00,157.0,14.62,148.0,17.26,12.17,47.59359,-54.27349
2024-01-11 05:04:00+00:00,155.0,14.59,159.0,16.62,12.17,47.59359,-54.27349
2024-01-11 05:14:00+00:00,132.0,11.16,130.0,14.02,12.17,47.59359,-54.27349
2024-01-11 05:24:00+00:00,130.0,13.93,128.0,17.77,12.17,47.59359,-54.27349
2024-01-11 05:34:00+00:00,142.0,15.06,143.0,18.44,12.17,47.59359,-54.27349
2024-01-11 05:44:00+00:00,140.0,14.93,149.0,18.27,12.17,47.59359,-54.27349
2024-01-11 05:54:00+00:00,148.0,15.92,149.0,18.04,12.17,47.59359,-54.27349
2024-01-11 06:04:00+00:00,149.0,17.81,151.0,21.39,12.17,47.59359,-54.27349
2024-01-11 06:14:00+00:00,147.0,17.53,150.0,21.72,12.17,47.59359,-54.27349
2024-01-11 06:24:00+00:00,146.0,15.35,148.0,18.63,12.17,47.59359,-54.27349
2024-01-11 06:34:00+00:00,138.0,13.72,146.0,16.98,12.17,47.59359,-54.27349
2024-01-11 06:44:00+00:00,138.0,14.76,140.0,16.74,12.17,47.59359,-54.27349
2024-01-11 06:54:00+00:00,139.0,14.68,137.0,18.85,12.17,47.59359,-54.27349
2024-01-11 07:04:00+00:00,140.0,14.98,134.0,18.25,12.17,47.59359,-54.27349
2024-01-11 07:14:01+00:00,143.0,13.77,142.0,15.97,12.09,47.59359,-54.27349
2024-01-11 07:24:01+00:00,139.0,13.63,143.0,15.85,12.09,47.59359,-54.27349
2024-01-11 07:34:01+00:00,131.0,12.05,133.0,14.85,12.09,47.59359,-54.27349
2024-01-11 07:44:01+00:00,138.0,11.39,134.0,14.69,12.09,47.59359,-54.27349
2024-01-11 07:54:01+00:00,153.0,10.48,142.0,13.7,12.09,47.59359,-54.27349
2024-01-11 08:04:01+00:00,146.0,14.68,142.0,16.91,12.09,47.59359,-54.27349
2024-01-11 08:14:00+00:00,151.0,11.45,142.0,13.12,12.09,47.59359,-54.27349
2024-01-11 08:24:00+00:00,140.0,12.18,142.0,15.01,12.09,47.59359,-54.27349
2024-01-11 08:34:00+00:00,153.0,8.07,158.0,9.79,12.09,47.59359,-54.27349
2024-01-11 08:44:00+00:00,141.0,10.35,137.0,13.5,12.09,47.59359,-54.27349
2024-01-11 08:54:00+00:00,144.0,9.34,131.0,12.83,12.09,47.59359,-54.27349
2024-01-11 09:04:00+00:00,159.0,9.31,149.0,11.39,12.09,47.59359,-54.27349
2024-01-11 09:14:00+00:00,157.0,9.75,170.0,10.84,12.01,47.59359,-54.27349
2024-01-11 09:24:00+00:00,151.0,10.57,153.0,12.6,12.01,47.59359,-54.27349
2024-01-11 09:34:00+00:00,149.0,10.5,138.0,11.89,12.01,47.59359,-54.27349
2024-01-11 09:44:00+00:00,154.0,11.87,146.0,12.86,12.01,47.59359,-54.27349
2024-01-11 09:54:00+00:00,155.0,10.96,158.0,13.6,12.01,47.59359,-54.27349
2024-01-11 10:04:00+00:00,315.0,0.01,155.0,0.0,12.01,47.59359,-54.27349
2024-01-11 10:14:00+00:00,315.0,0.01,155.0,0.0,12.01,47.59359,-54.27349
2024-01-11 10:24:00+00:00,315.0,0.01,155.0,0.0,12.01,47.59359,-54.27349
2024-01-11 10:34:00+00:00,315.0,0.01,155.0,0.0,12.01,47.59359,-54.27349
2024-01-11 10:44:00+00:00,315.0,0.01,155.0,0.0,12.01,47.59359,-54.27349
2024-01-11 10:54:00+00:00,315.0,0.01,155.0,0.0,12.01,47.59359,-54.27349
2024-01-11 11:04:00+00:00,315.0,0.01,155.0,0.0,12.01,47.59359,-54.27349
2024-01-11 11:14:00+00:00,315.0,0.01,155.0,0.0,12.01,47.59359,-54.27349
2024-01-11 11:24:00+00:00,315.0,0.01,155.0,0.0,12.01,47.59359,-54.27349
2024-01-11 11:34:00+00:00,315.0,0.01,155.0,0.0,12.01,47.59359,-54.27349
2024-01-11 11:44:00+00:00,315.0,0.01,155.0,0.0,12.01,47.59359,-54.27349
2024-01-11 11:54:00+00:00,315.0,0.01,155.0,0.0,12.01,47.59359,-54.27349
2024-01-11 12:04:00+00:00,188.0,8.0,193.0,10.0,12.01,47.59359,-54.27349
2024-01-11 12:14:00+00:00,186.0,8.36,189.0,10.8,12.01,47.59359,-54.27349
2024-01-11 12:24:00+00:00,184.0,9.08,187.0,11.89,12.01,47.59359,-54.27349
2024-01-11 12:34:00+00:00,165.0,12.64,170.0,17.58,12.01,47.59359,-54.27349
2024-01-11 12:44:00+00:00,164.0,15.32,149.0,19.23,12.01,47.59359,-54.27349
2024-01-11 12:54:00+00:00,157.0,15.46,149.0,17.88,12.01,47.59359,-54.27349
2024-01-11 13:04:00+00:00,163.0,14.27,152.0,16.95,12.01,47.59359,-54.27349
2024-01-11 13:14:00+00:00,164.0,14.53,147.0,17.92,12.17,47.59359,-54.27349
2024-01-11 13:24:00+00:00,164.0,14.15,167.0,16.32,12.17,47.59359,-54.27349
2024-01-11 13:34:00+00:00,163.0,16.17,163.0,19.12,12.17,47.59359,-54.27349
2024-01-11 13:44:00+00:00,160.0,15.39,147.0,19.37,12.17,47.59359,-54.27349
2024-01-11 13:54:00+00:00,166.0,14.18,155.0,16.46,12.17,47.59359,-54.27349
2024-01-11 14:04:00+00:00,159.0,13.57,146.0,17.69,12.17,47.59359,-54.27349
2024-01-11 14:14:00+00:00,160.0,13.56,148.0,16.23,12.73,47.59359,-54.27349
2024-01-11 14:24:00+00:00,161.0,11.08,154.0,12.83,12.73,47.59359,-54.27349
2024-01-11 14:34:00+00:00,162.0,11.91,171.0,13.95,12.73,47.59359,-54.27349
2024-01-11 14:44:00+00:00,159.0,10.82,148.0,13.71,12.73,47.59359,-54.27349
2024-01-11 14:54:00+00:00,165.0,10.02,161.0,11.42,12.73,47.59359,-54.27349
2024-01-11 15:04:00+00:00,163.0,11.74,166.0,13.22,12.73,47.59359,-54.27349
2024-01-11 15:14:00+00:00,162.0,10.7,156.0,11.87,12.73,47.59359,-54.27349
2024-01-11 15:24:00+00:00,161.0,11.2,162.0,12.91,12.73,47.59359,-54.27349
2024-01-11 15:34:00+00:00,169.0,10.08,164.0,11.78,12.73,47.59359,-54.27349
2024-01-11 15:44:00+00:00,171.0,9.18,173.0,10.19,12.73,47.59359,-54.27349
2024-01-11 15:54:00+00:00,169.0,8.22,171.0,9.23,12.73,47.59359,-54.27349
2024-01-11 16:04:00+00:00,172.0,7.8,169.0,8.75,12.73,47.59359,-54.27349
2024-01-11 16:14:00+00:00,172.0,8.68,184.0,9.55,12.73,47.59359,-54.27349
2024-01-11 16:24:00+00:00,170.0,8.45,170.0,9.4,12.73,47.59359,-54.27349
2024-01-11 16:34:00+00:00,170.0,8.36,170.0,9.53,12.73,47.59359,-54.27349
2024-01-11 16:44:00+00:00,169.0,8.07,168.0,8.99,12.73,47.59359,-54.27349
2024-01-11 16:54:00+00:00,169.0,7.42,167.0,8.09,12.73,47.59359,-54.27349
2024-01-11 17:04:00+00:00,172.0,7.14,170.0,7.8,12.73,47.59359,-54.27349
2024-01-11 17:14:00+00:00,172.0,6.03,177.0,6.8,12.81,47.59359,-54.27349
2024-01-11 17:24:00+00:00,176.0,5.49,177.0,6.76,12.81,47.59359,-54.27349
2024-01-11 17:34:00+00:00,176.0,6.09,175.0,7.35,12.81,47.59359,-54.27349
2024-01-11 17:44:00+00:00,177.0,7.2,175.0,7.89,12.81,47.59359,-54.27349
2024-01-11 17:54:00+00:00,172.0,5.38,174.0,6.01,12.81,47.59359,-54.27349
2024-01-11 18:04:00+00:00,174.0,4.46,171.0,5.01,12.81,47.59359,-54.27349
2024-01-11 18:14:00+00:00,167.0,3.39,172.0,4.02,12.57,47.59359,-54.27349
2024-01-11 18:24:00+00:00,179.0,4.05,178.0,4.51,12.57,47.59359,-54.27349
2024-01-11 18:34:00+00:00,197.0,3.24,195.0,3.7,12.57,47.59359,-54.27349
2024-01-11 18:44:00+00:00,179.0,2.8,179.0,3.01,12.57,47.59359,-54.27349
2024-01-11 18:54:00+00:00,174.0,3.59,170.0,3.9,12.57,47.59359,-54.27349
2024-01-11 19:04:00+00:00,166.0,2.97,163.0,3.28,12.57,47.59359,-54.27349
2024-01-11 19:14:00+00:00,174.0,3.82,177.0,4.5,12.41,47.59359,-54.27349
2024-01-11 19:24:00+00:00,176.0,3.76,178.0,4.0,12.41,47.59359,-54.27349
2024-01-11 19:34:00+00:00,170.0,3.62,173.0,3.9,12.41,47.59359,-54.27349
2024-01-11 19:44:00+00:00,169.0,2.99,170.0,3.16,12.41,47.59359,-54.27349
2024-01-11 19:54:00+00:00,170.0,3.96,171.0,4.37,12.41,47.59359,-54.27349
2024-01-11 20:04:00+00:00,167.0,4.84,166.0,5.34,12.41,47.59359,-54.27349
2024-01-11 20:14:00+00:00,165.0,4.39,163.0,4.71,12.25,47.59359,-54.27349
2024-01-11 20:24:00+00:00,168.0,4.3,167.0,4.86,12.25,47.59359,-54.27349
2024-01-11 20:34:00+00:00,173.0,3.89,173.0,4.55,12.25,47.59359,-54.27349
2024-01-11 20:44:00+00:00,181.0,4.09,183.0,4.57,12.25,47.59359,-54.27349
2024-01-11 20:54:00+00:00,171.0,4.88,172.0,5.16,12.25,47.59359,-54.27349
2024-01-11 21:04:00+00:00,169.0,4.15,168.0,4.48,12.25,47.59359,-54.27349
2024-01-11 21:14:00+00:00,179.0,2.57,177.0,2.88,12.17,47.59359,-54.27349
2024-01-11 21:24:00+00:00,204.0,2.55,197.0,3.01,12.17,47.59359,-54.27349
2024-01-11 21:34:00+00:00,205.0,3.14,197.0,3.86,12.17,47.59359,-54.27349
2024-01-11 21:44:00+00:00,194.0,3.25,192.0,3.6,12.17,47.59359,-54.27349
2024-01-11 21:54:00+00:00,220.0,2.48,218.0,2.69,12.17,47.59359,-54.27349
2024-01-11 22:04:00+00:00,182.0,3.62,183.0,4.07,12.17,47.59359,-54.27349
2024-01-11 22:14:00+00:00,181.0,2.92,183.0,3.45,12.09,47.59359,-54.27349
2024-01-11 22:24:00+00:00,234.0,1.92,233.0,2.16,12.09,47.59359,-54.27349
2024-01-11 22:34:00+00:00,211.0,2.52,210.0,2.9,12.09,47.59359,-54.27349
2024-01-11 22:44:00+00:00,223.0,2.78,225.0,3.41,12.09,47.59359,-54.27349
2024-01-11 22:54:00+00:00,221.0,3.67,221.0,4.35,12.09,47.59359,-54.27349
2024-01-11 23:04:00+00:00,219.0,4.3,221.0,4.72,12.09,47.59359,-54.27349
2024-01-11 23:14:00+00:00,216.0,4.77,217.0,5.35,12.01,47.59359,-54.27349
2024-01-11 23:24:00+00:00,213.0,4.2,213.0,4.72,12.01,47.59359,-54.27349
2024-01-11 23:34:00+00:00,214.0,4.76,216.0,5.19,12.01,47.59359,-54.27349
2024-01-11 23:44:00+00:00,213.0,4.13,211.0,4.65,12.01,47.59359,-54.27349
2024-01-11 23:54:00+00:00,216.0,3.75,219.0,4.23,12.01,47.59359,-54.27349
